Location: *
(44.9500°N, 6.8833°E)
Time: 04:20:34
(UTC+00:00)

Daily predictions for brighter satellites

Satellite Brightness Start Highest point End
(mag) Time Altitude Azimuth Time Altitude Azimuth Time Altitude Azimuth
Cosmos 2297 Rocket 3.8 03:56:04 25° SSE 03:56:04 25° SSE 03:58:18 10° SSE
Cosmos 2227 Rocket 3.4 04:07:19 33° SSE 04:07:19 33° SSE 04:10:16 10° SSE
ATLAS 3B R/B 4.3 04:06:41 19° N 04:09:28 24° NNE 04:14:50 10° E
Cosmos 2263 Rocket 4.4 04:06:51 11° N 04:10:30 19° NE 04:14:29 10° E
ALOS 4.1 04:08:15 10° NNE 04:12:23 30° E 04:16:28 10° SSE
Cosmos 1656 4.3 04:17:31 44° NNE 04:17:31 44° NNE 04:21:13 10° NNE
USA 215 3.2 04:14:49 10° ESE 04:21:21 81° NE 04:22:45 59° NW
BREEZE-M DEB (TANK) 3.3 04:22:23 52° ENE 04:22:23 52° ENE 04:28:04 10° ENE
Cosmos 2278 4.4 04:17:00 13° S 04:22:00 51° ESE 04:27:31 10° NE
Cosmos 2184 Rocket 3.8 04:28:02 60° NNW 04:29:07 75° W 04:35:21 10° S
SKYMED 2 4.0 04:24:56 10° SSE 04:29:11 59° ENE 04:29:15 59° ENE
Cosmos 2369 3.7 04:28:33 48° SSW 04:30:14 81° ESE 04:36:00 10° NNE
CENTAUR R/B 4.0 04:30:13 20° NNW 04:35:30 44° NE 04:43:39 10° ESE
Cosmos 2154 Rocket 4.0 04:30:51 10° N 04:37:06 82° E 04:43:17 10° S
SL-4 R/B 3.1 04:39:30 35° ENE 04:39:30 35° ENE 04:41:56 10° E
Okean O Rocket 3.6 04:34:40 10° NE 04:38:34 29° E 04:42:25 10° SSE
COSMOS 2455 3.8 04:36:46 10° S 04:42:29 48° ESE 04:48:14 10° NE
ATLAS 2AS CENTAUR R/B 4.2 04:38:39 10° S 04:45:56 42° ESE 04:53:20 10° NE
Cosmos 1610 Rocket 4.4 04:46:50 10° NNW 04:53:05 73° W 04:59:22 10° S
Cosmos 1980 Rocket 2.5 04:47:55 10° SSW 04:53:33 67° ESE 04:59:12 10° NNE
USA 238 DEB 3.8 04:51:11 27° NW 04:55:30 85° NE 05:02:57 10° SE
USA 238 3.8 04:51:16 27° NW 04:55:36 84° NE 05:03:02 10° SE
BREEZE-M DEB (TANK) 4.4 04:57:26 14° SSE 04:57:26 14° SSE 04:57:51 10° SSE
FENGYUN 3A 3.7 04:50:58 10° NNE 04:56:24 77° ESE 05:01:49 10° S
Cosmos 773 Rocket 3.9 04:55:06 29° SW 04:57:51 70° WNW 05:03:09 10° NNE
Cosmos 2074 Rocket 4.2 04:59:00 42° WNW 04:59:33 42° W 05:05:19 10° SSW
Lacrosse 5 rocket 3.2 05:00:19 21° N 05:00:19 21° N 05:03:29 10° NE
Meteor 1-21 Rocket 4.3 04:55:07 10° N 05:01:01 84° E 05:06:57 10° SSE
Cosmos 1697 Rocket 2.6 04:59:42 35° SW 05:01:59 61° WNW 05:07:34 10° NNE
Cosmos 1825 Rocket 3.9 04:57:46 10° N 05:02:05 63° E 05:06:22 10° SSE
Cosmos 1726 3.3 04:59:25 10° SSE 05:02:54 42° E 05:06:23 10° NNE
Cosmos 1295 Rocket 4.4 04:56:44 10° N 05:02:59 85° W 05:09:07 10° S
STARLINK-61 4.0 05:02:08 37° SSW 05:03:23 56° SE 05:07:16 10° ENE
BREEZE M DEB (TANK) 2.9 05:05:28 45° S 05:05:49 49° SE 05:09:56 10° ENE
Orbus 7S? 4.0 05:07:27 35° N 05:08:31 48° NE 05:14:08 10° ESE
Cosmos 44 Rocket 3.2 05:08:04 47° WNW 05:09:04 59° WSW 05:13:43 10° SSE
NOSS 2-2 (D) 3.0 05:11:29 61° W 05:11:48 64° NW 05:15:50 10° NNE
Cosmos 962 Rocket 4.4 05:07:38 10° N 05:13:56 84° W 05:20:16 10° S
Cosmos 1953 2.2 05:10:28 10° SSW 05:14:29 70° W 05:18:33 10° N
STARLINK-75 4.2 05:14:17 20° SSW 05:16:40 51° SE 05:20:27 10° ENE
STARLINK-53 4.5 05:13:59 16° SSW 05:16:54 47° SE 05:20:47 10° ENE
COSMO-SKYMED 1 2.9 05:13:13 10° S 05:17:20 42° W 05:17:53 40° WNW
MOS 1-B 4.2 05:14:32 10° N 05:20:19 71° WNW 05:26:04 10° SSW
Cosmos 1606 Rocket 3.6 05:16:15 10° S 05:20:42 82° E 05:25:09 10° N
Cosmos 1726 Rocket 3.9 05:18:50 10° S 05:23:15 70° E 05:27:41 10° NNE
Cosmos 2082 4.4 05:22:58 29° W 05:24:06 32° WSW 05:29:04 10° SSW
STARLINK-41 4.2 05:22:57 14° SW 05:26:04 52° SE 05:29:51 10° ENE
CZ-4B DEB 4.2 05:22:37 10° N 05:28:08 66° WNW 05:33:36 10° SSW
BREEZE-M DEB (TANK) 4.3 05:27:29 30° NW 05:29:16 67° NNE 05:38:29 10° ESE
USA 32 3.9 05:24:35 10° N 05:29:52 82° W 05:35:06 10° S
STARLINK-58 4.1 05:26:37 13° SW 05:30:04 58° SE 05:34:02 10° ENE
STARLINK-62 4.0 05:28:20 13° SW 05:31:46 62° SE 05:35:44 10° ENE
Cosmos 1538 Rocket 4.2 05:27:42 10° SW 05:32:52 49° WNW 05:38:02 10° NNE
STARLINK 4.0 05:30:24 11° SW 05:34:00 56° SE 05:37:48 10° ENE
Cosmos 2181 Rocket 4.0 05:28:23 10° S 05:34:34 88° W 05:40:54 10° N
FALCON 9 DEB 3.1 05:35:47 31° SE 05:35:47 31° SE 05:37:26 10° ENE
Cosmos 2297 Rocket 4.1 05:37:56 11° WSW 05:37:56 11° WSW 05:38:33 10° SW
Cosmos 2341 Rocket 4.0 05:33:50 10° NNW 05:39:59 59° W 05:46:03 10° S
Cosmos 2322 Rocket 3.6 05:36:26 10° S 05:41:44 43° ESE 05:47:04 10° NE
SL-8 Rocket 3.9 05:37:54 10° NNW 05:44:07 75° W 05:50:14 10° S
Cosmos 2344 3.9 05:37:54 12° WSW 05:44:38 48° NW 05:52:46 10° NE
Cosmos 2227 Rocket 4.1 05:49:14 11° WSW 05:49:14 11° WSW 05:49:43 10° WSW
NOSS 3-2 (C) 4.1 05:40:39 12° NW 05:47:53 79° SW 05:56:19 10° SSE
ALOS 3.0 05:45:39 10° N 05:49:46 31° WNW 05:53:51 10° SW
NOSS 2-2 (C) 4.1 05:49:07 22° W 05:50:41 30° NW 05:54:23 10° NNE
STARLINK-34 3.5 05:49:07 10° SW 05:53:09 87° SE 05:57:12 10° ENE
STARLINK-80 4.4 05:51:41 20° WNW 05:53:29 30° NNW 05:56:53 10° NE
Cosmos 2228 3.2 05:49:50 10° SSW 05:54:05 49° WNW 05:58:23 10° N
Cosmos 2263 Rocket 2.2 05:49:30 10° NNW 05:55:10 84° WSW 06:00:50 10° SSE
STARLINK-24 3.5 05:51:16 10° SW 05:55:18 89° SE 05:59:21 10° ENE
STARLINK-60 4.5 05:53:38 15° NW 05:55:46 29° NNE 05:58:45 10° E
STARLINK-81 3.6 05:52:16 10° SW 05:56:18 85° SSE 06:00:21 10° ENE
Cosmos 1328 3.8 05:52:48 10° NNW 05:56:45 58° W 06:00:38 10° S
STARLINK-48 4.2 05:54:58 19° WNW 05:57:11 35° NNW 06:00:48 10° NE
STARLINK-54 3.5 05:54:06 10° WSW 05:58:08 87° NNW 06:02:11 10° ENE
NOAA 6 4.3 05:54:31 10° N 05:59:30 48° WNW 06:04:27 10° SW
STARLINK-77 3.5 05:55:34 10° SW 05:59:35 89° SSE 06:03:38 10° ENE
STARLINK-25 3.5 05:57:12 10° WSW 06:01:13 89° NNW 06:05:15 10° ENE
ATLAS 3B R/B 2.9 05:54:30 10° NW 06:01:15 75° NE 06:08:10 10° SE
NOSS 3-4 (A) 3.5 05:55:29 10° SSW 06:01:28 84° SE 06:07:50 10° NE
NOSS 3-4 (C) 3.5 05:55:36 10° SSW 06:01:34 83° SE 06:07:56 10° NE
Abrixas rocket 2.0 06:00:19 19° WNW 06:02:19 77° NNE 06:05:22 10° ESE
STARLINK-71 3.5 05:59:06 10° WSW 06:03:07 81° NNW 06:07:10 10° NE
Envisat 3.9 05:59:03 10° NNE 06:04:03 54° E 06:09:01 10° S
STARLINK-79 3.5 06:00:31 10° WSW 06:04:33 85° NNW 06:08:36 10° ENE
CZ-3 R/B 3.7 05:53:51 10° WSW 06:04:35 23° SSW 06:09:23 10° SSE
USA 215 4.1 05:59:06 10° S 06:04:47 31° SW 06:10:06 12° WNW
Helios 1A Rocket 3.2 06:02:05 10° N 06:06:01 43° WNW 06:09:55 10° SW
STARLINK-78 3.5 06:02:14 10° WSW 06:06:15 82° NNW 06:10:18 10° NE
Cosmos 1680 Rocket 3.5 06:01:18 10° SSW 06:06:35 72° WNW 06:11:56 10° NNE
STARLINK-26 3.8 06:05:19 15° W 06:07:56 38° NNW 06:11:16 10° NE
STARLINK-57 3.5 06:03:59 10° WSW 06:08:00 78° NNW 06:12:03 10° NE
Cosmos 1953 Rocket 4.1 06:04:24 10° NNW 06:08:31 37° W 06:12:33 10° SSW
Cosmos 1844 Rocket 4.3 06:04:12 10° N 06:09:13 32° NE 06:14:14 10° ESE
STARLINK-49 3.5 06:05:30 10° WSW 06:09:31 79° NNW 06:13:34 10° NE
CZ-2C R/B 4.1 06:05:08 10° SSE 06:09:43 67° ENE 06:14:15 10° N
Cosmos 1371 Rocket 4.1 06:05:18 10° NNW 06:10:37 89° E 06:15:57 10° SSE
STARLINK-27 3.5 06:07:10 10° WSW 06:11:12 77° NNW 06:15:14 10° NE
Okean-O 3.7 06:07:13 10° NNE 06:11:34 51° E 06:15:53 10° S
STARLINK-74 3.5 06:08:49 10° WSW 06:12:50 75° NNW 06:16:52 10° NE
YAOGAN 6 3.6 06:09:52 10° NNE 06:13:21 49° E 06:16:46 10° S
STARLINK-33 3.3 06:09:56 10° WSW 06:13:33 63° NNW 06:17:11 10° NE
BREEZE M DEB (TANK) 3.8 06:00:25 12° WNW 06:13:35 74° NNE 06:17:30 10° E
Cosmos 2218 Rocket 4.2 06:07:55 10° NNW 06:14:07 53° W 06:20:14 10° SSW
STARLINK-39 3.5 06:10:28 10° WSW 06:14:29 73° NNW 06:18:31 10° NE
Okean O Rocket 2.4 06:10:59 10° N 06:14:53 30° WNW 06:18:45 10° SW
STARLINK 3.5 06:12:09 10° WSW 06:16:10 71° NNW 06:20:12 10° NE
Cosmos 1437 4.2 06:14:50 10° N 06:17:41 35° ENE 06:20:30 10° SE
STARLINK-66 3.4 06:14:16 10° WSW 06:17:51 58° NNW 06:21:28 10° NE
STARLINK-69 3.6 06:14:01 10° WSW 06:18:01 65° NNW 06:22:02 10° NE
SL-4 R/B 2.5 06:15:07 12° WNW 06:18:04 35° SW 06:21:13 10° SSE
STARLINK-21 3.5 06:15:30 10° WSW 06:19:30 67° NNW 06:23:31 10° NE
SL-16 R/B 2.2 06:13:50 10° SSW 06:19:31 84° WNW 06:25:14 10° NNE
STARLINK-45 3.6 06:17:25 10° WSW 06:21:24 61° NNW 06:25:24 10° NE
STARLINK-42 3.5 06:18:17 10° WSW 06:22:04 59° NNW 06:25:50 10° NE
STARLINK-55 3.4 06:19:00 10° WSW 06:22:33 53° NNW 06:26:07 10° NE
Cosmos 2112 Rocket 4.1 06:17:35 10° SSW 06:22:52 61° WNW 06:28:11 10° NNE
STARLINK-70 3.6 06:18:58 10° WSW 06:22:57 61° NNW 06:26:57 10° NE
STARLINK-64 3.5 06:19:41 10° WSW 06:23:28 59° NNW 06:27:15 10° NE
STARLINK-76 3.6 06:20:30 10° WSW 06:24:29 62° NNW 06:28:29 10° NE
H-2A R/B 3.2 06:20:48 10° N 06:24:30 41° WNW 06:28:10 10° SW
STARLINK 3.6 06:22:09 10° WSW 06:26:08 61° NNW 06:30:09 10° NE
CENTAUR R/B 3.4 06:18:43 10° NW 06:26:43 63° WSW 06:35:18 10° SSE
CZ-4B R/B 3.9 06:22:43 10° N 06:27:39 33° WNW 06:32:30 10° SW
STARLINK-32 3.6 06:23:50 10° WSW 06:27:48 60° NNW 06:31:48 10° NE
Cosmos 158 Rocket 3.8 06:23:18 10° SSW 06:28:09 71° WNW 06:33:05 10° NNE
COSMOS 2455 3.4 06:23:07 10° WSW 06:28:36 35° NW 06:34:06 10° NNE
ADEOS Rocket 3.2 06:24:02 10° SSW 06:29:09 40° W 06:34:25 10° NNW
STARLINK-40 3.7 06:25:30 10° WSW 06:29:28 58° NNW 06:33:28 10° NE
STARLINK-28 3.6 06:27:33 10° W 06:30:58 44° NNW 06:34:24 10° NE
STARLINK-44 3.7 06:27:09 10° WSW 06:31:07 57° NNW 06:35:06 10° NE
Cosmos 2360 Rocket 3.2 06:25:44 10° S 06:31:14 54° ESE 06:36:46 10° NE
STARLINK-37 3.7 06:28:56 10° WSW 06:32:53 54° NNW 06:36:51 10° NE
STARLINK-36 3.7 06:30:30 10° WSW 06:34:27 54° NNW 06:38:25 10° NE
ATLAS 2AS CENTAUR R/B 3.2 06:28:59 10° WSW 06:36:50 57° NW 06:44:41 10° NNE
